• în România
  • Lista ţărilor
  • Pe 7 zile
  • Temperatura apei
  • Hartă satelitară
  • Meteo pe hartă
  • Widget-uri
  • user-avatar
    Intrare

    Meteo pe oră la Myzovka

    Astăzi, 25 Mai, Vineri

    Timp Temperatura Precipitaţii Vânt Presiune Umiditate
    00:00 +13°C° 0 mm 3 m/s 745 mmHg 88%
    01:00 +12°C° 0 mm 3 m/s 745 mmHg 89%
    02:00 +12°C° 0 mm 3 m/s 745 mmHg 93%
    03:00 +12°C° 0 mm 3 m/s 746 mmHg 93%
    04:00 +12°C° 0 mm 4 m/s 746 mmHg 93%
    05:00 +13°C° 0 mm 5 m/s 746 mmHg 92%
    06:00 +14°C° 0 mm 5 m/s 746 mmHg 87%
    07:00 +15°C° 0 mm 5 m/s 747 mmHg 82%
    08:00 +17°C° 0 mm 6 m/s 747 mmHg 75%
    09:00 +17°C° 0 mm 6 m/s 747 mmHg 70%
    10:00 +19°C° 0 mm 6 m/s 747 mmHg 66%
    11:00 +19°C° 0 mm 6 m/s 748 mmHg 62%
    12:00 +19°C° 0 mm 6 m/s 748 mmHg 59%
    13:00 +19°C° 0 mm 6 m/s 748 mmHg 57%
    14:00 +19°C° 0 mm 6 m/s 748 mmHg 54%
    15:00 +17°C° 0 mm 6 m/s 748 mmHg 56%
    16:00 +17°C° 0 mm 6 m/s 749 mmHg 58%
    17:00 +16°C° 0 mm 5 m/s 749 mmHg 60%
    18:00 +15°C° 0 mm 5 m/s 749 mmHg 63%
    19:00 +13°C° 0 mm 5 m/s 750 mmHg 65%
    20:00 +12°C° 0 mm 4 m/s 750 mmHg 68%
    21:00 +11°C° 0 mm 4 m/s 751 mmHg 67%
    22:00 +11°C° 0 mm 4 m/s 751 mmHg 67%
    23:00 +10°C° 0 mm 4 m/s 752 mmHg 67%

    Mâine, 26 Mai, Sâmbătă

    Timp Temperatura Precipitaţii Vânt Presiune Umiditate
    00:00 +8°C° 0 mm 4 m/s 752 mmHg 68%
    01:00 +8°C° 0 mm 4 m/s 753 mmHg 69%
    02:00 +8°C° 0 mm 3 m/s 753 mmHg 71%
    03:00 +8°C° 0 mm 3 m/s 754 mmHg 72%
    04:00 +8°C° 0 mm 3 m/s 754 mmHg 73%
    05:00 +8°C° 0 mm 3 m/s 754 mmHg 74%
    06:00 +8°C° 0 mm 4 m/s 755 mmHg 67%
    07:00 +11°C° 0 mm 4 m/s 755 mmHg 61%
    08:00 +13°C° 0 mm 4 m/s 756 mmHg 55%
    09:00 +13°C° 0 mm 4 m/s 756 mmHg 53%
    10:00 +14°C° 0 mm 4 m/s 756 mmHg 51%
    11:00 +15°C° 0 mm 4 m/s 756 mmHg 49%
    12:00 +15°C° 0 mm 4 m/s 756 mmHg 49%
    13:00 +17°C° 0 mm 4 m/s 756 mmHg 49%
    14:00 +17°C° 0 mm 4 m/s 755 mmHg 49%
    15:00 +17°C° 0 mm 3 m/s 755 mmHg 51%
    16:00 +17°C° 0 mm 3 m/s 755 mmHg 53%
    17:00 +17°C° 0 mm 3 m/s 755 mmHg 55%
    18:00 +15°C° 0 mm 2 m/s 755 mmHg 60%
    19:00 +13°C° 0 mm 2 m/s 755 mmHg 64%
    20:00 +11°C° 0 mm 1 m/s 755 mmHg 69%
    21:00 +11°C° 0 mm 1 m/s 755 mmHg 70%
    22:00 +10°C° 0 mm 1 m/s 755 mmHg 72%
    23:00 +9°C° 0 mm 1 m/s 756 mmHg 73%

    Poimâine, 27 Mai, Duminică

    Timp Temperatura Precipitaţii Vânt Presiune Umiditate
    00:00 +9°C° 0 mm 1 m/s 756 mmHg 74%
    01:00 +8°C° 0 mm 1 m/s 756 mmHg 76%
    02:00 +8°C° 0 mm 1 m/s 756 mmHg 77%
    03:00 +8°C° 0 mm 1 m/s 756 mmHg 77%
    04:00 +9°C° 0 mm 1 m/s 756 mmHg 77%
    05:00 +9°C° 0 mm 1 m/s 756 mmHg 77%
    06:00 +11°C° 0 mm 1 m/s 755 mmHg 71%
    07:00 +13°C° 0 mm 2 m/s 755 mmHg 66%
    08:00 +15°C° 0 mm 2 m/s 755 mmHg 60%
    09:00 +16°C° 0 mm 2 m/s 755 mmHg 56%
    10:00 +17°C° 0 mm 2 m/s 754 mmHg 53%
    11:00 +18°C° 0 mm 2 m/s 754 mmHg 49%
    12:00 +19°C° 0 mm 3 m/s 753 mmHg 49%
    13:00 +19°C° 0 mm 3 m/s 753 mmHg 49%
    14:00 +20°C° 0 mm 3 m/s 752 mmHg 49%
    15:00 +19°C° 0 mm 3 m/s 752 mmHg 53%
    16:00 +19°C° 0 mm 3 m/s 751 mmHg 57%
    17:00 +19°C° 0 mm 3 m/s 751 mmHg 60%
    18:00 +17°C° 0 mm 3 m/s 750 mmHg 66%
    19:00 +16°C° 0 mm 3 m/s 750 mmHg 71%
    20:00 +13°C° 0 mm 3 m/s 750 mmHg 76%
    21:00 +12°C° 0 mm 3 m/s 750 mmHg 77%
    22:00 +12°C° 0 mm 3 m/s 750 mmHg 79%
    23:00 +11°C° 0 mm 3 m/s 750 mmHg 80%

    28 Mai, Luni

    Timp Temperatura Precipitaţii Vânt Presiune Umiditate
    00:00 +11°C° 0 mm 3 m/s 750 mmHg 83%
    01:00 +11°C° 0 mm 3 m/s 751 mmHg 85%
    02:00 +12°C° 0 mm 2 m/s 751 mmHg 88%
    03:00 +12°C° 0 mm 2 m/s 751 mmHg 88%
    04:00 +12°C° 0 mm 2 m/s 751 mmHg 88%
    05:00 +12°C° 0 mm 2 m/s 751 mmHg 88%
    06:00 +13°C° 0 mm 3 m/s 752 mmHg 78%
    07:00 +16°C° 0 mm 3 m/s 752 mmHg 69%
    08:00 +17°C° 0 mm 4 m/s 752 mmHg 60%
    09:00 +18°C° 0 mm 4 m/s 753 mmHg 56%
    10:00 +19°C° 0 mm 4 m/s 753 mmHg 53%
    11:00 +19°C° 0 mm 4 m/s 753 mmHg 49%
    12:00 +19°C° 0 mm 4 m/s 753 mmHg 48%
    13:00 +19°C° 0 mm 4 m/s 753 mmHg 48%
    14:00 +20°C° 0 mm 4 m/s 753 mmHg 47%
    15:00 +19°C° 0 mm 3 m/s 753 mmHg 50%
    16:00 +19°C° 0 mm 3 m/s 753 mmHg 53%
    17:00 +18°C° 0 mm 3 m/s 753 mmHg 55%
    18:00 +16°C° 0 mm 2 m/s 753 mmHg 59%
    19:00 +14°C° 0 mm 2 m/s 753 mmHg 63%
    20:00 +12°C° 0 mm 2 m/s 753 mmHg 67%
    21:00 +12°C° 0 mm 2 m/s 754 mmHg 67%
    22:00 +11°C° 0 mm 1 m/s 754 mmHg 68%
    23:00 +10°C° 0 mm 1 m/s 754 mmHg 69%

    29 Mai, Marţi

    Timp Temperatura Precipitaţii Vânt Presiune Umiditate
    00:00 +9°C° 0 mm 1 m/s 754 mmHg 69%
    01:00 +9°C° 0 mm 1 m/s 754 mmHg 70%
    02:00 +8°C° 0 mm 1 m/s 754 mmHg 71%
    03:00 +8°C° 0 mm 0 m/s 754 mmHg 71%
    04:00 +9°C° 0 mm 0 m/s 754 mmHg 71%
    05:00 +10°C° 0 mm 0 m/s 755 mmHg 71%
    06:00 +12°C° 0 mm 1 m/s 754 mmHg 65%
    07:00 +14°C° 0 mm 1 m/s 754 mmHg 59%
    08:00 +16°C° 0 mm 1 m/s 754 mmHg 53%
    09:00 +18°C° 0 mm 1 m/s 754 mmHg 50%
    10:00 +19°C° 0 mm 1 m/s 753 mmHg 47%
    11:00 +20°C° 0 mm 2 m/s 753 mmHg 43%
    12:00 +20°C° 0 mm 2 m/s 753 mmHg 43%
    13:00 +21°C° 0 mm 2 m/s 752 mmHg 43%
    14:00 +21°C° 0 mm 2 m/s 752 mmHg 43%
    15:00 +21°C° 0 mm 2 m/s 751 mmHg 47%
    16:00 +21°C° 0 mm 2 m/s 751 mmHg 51%
    17:00 +21°C° 0 mm 2 m/s 750 mmHg 55%
    18:00 +19°C° 0 mm 2 m/s 750 mmHg 59%
    19:00 +17°C° 0 mm 2 m/s 750 mmHg 64%
    20:00 +15°C° 0 mm 2 m/s 749 mmHg 69%
    21:00 +14°C° 0 mm 2 m/s 749 mmHg 71%
    22:00 +13°C° 0 mm 3 m/s 749 mmHg 73%
    23:00 +12°C° 0 mm 3 m/s 749 mmHg 76%

    30 Mai, Miercuri

    Timp Temperatura Precipitaţii Vânt Presiune Umiditate
    00:00 +12°C° 0 mm 3 m/s 748 mmHg 79%
    01:00 +11°C° 0 mm 3 m/s 748 mmHg 82%
    02:00 +11°C° 0 mm 3 m/s 748 mmHg 85%
    03:00 +12°C° 0 mm 3 m/s 747 mmHg 85%
    04:00 +12°C° 0 mm 3 m/s 747 mmHg 86%
    05:00 +13°C° 0 mm 4 m/s 747 mmHg 86%
    06:00 +15°C° 0 mm 4 m/s 747 mmHg 82%
    07:00 +18°C° 0 mm 4 m/s 746 mmHg 77%
    08:00 +20°C° 0 mm 5 m/s 746 mmHg 72%
    09:00 +21°C° 0 mm 5 m/s 745 mmHg 68%
    10:00 +22°C° 0 mm 5 m/s 745 mmHg 64%
    11:00 +23°C° 0 mm 6 m/s 745 mmHg 59%
    12:00 +24°C° 0 mm 6 m/s 744 mmHg 58%
    13:00 +24°C° 0 mm 6 m/s 744 mmHg 57%
    14:00 +26°C° 0 mm 6 m/s 743 mmHg 56%
    15:00 +25°C° 0 mm 5 m/s 743 mmHg 59%
    16:00 +25°C° 0 mm 4 m/s 743 mmHg 63%
    17:00 +25°C° 0 mm 4 m/s 742 mmHg 67%
    18:00 +22°C° 0 mm 4 m/s 742 mmHg 72%
    19:00 +20°C° 0 mm 3 m/s 742 mmHg 77%
    20:00 +18°C° 0 mm 3 m/s 742 mmHg 82%
    21:00 +18°C° 0 mm 3 m/s 741 mmHg 84%
    22:00 +17°C° 0 mm 3 m/s 741 mmHg 87%
    23:00 +17°C° 0 mm 3 m/s 741 mmHg 89%
    Arată mai mult